DW3420 Weather Reports


time (UTC)temp
C
wind
direction
speed
KPH
gust
KPH
rain 1hr
cm
rain 24hr
cm
rain mn
cm
humidity
%
barometer
mb
20260504110512 12 56 1.6 12.9 0.00 0.00 0.00 67 1014.1
20260504100519 11 207 3.2 4.8 0.00 0.00 0.00 70 1013.8
20260504081508 12 218 1.6 4.8 0.00 0.00 0.00 66 1013.9
20260504081022 12 183 3.2 4.8 0.00 0.00 0.00 67 1013.9
20260504080512 12 179 1.6 4.8 0.00 0.00 0.00 66 1013.9
20260504050509 11 202 0.0 0.0 0.00 0.00 0.00 67 1015.2
20260504050019 11 202 0.0 3.2 0.00 0.00 0.00 67 1015.2
20260504045534 12 202 1.6 3.2 0.00 0.00 0.00 67 1015.2
20260504045042 12 202 0.0 1.6 0.00 0.00 0.00 65 1015.2
20260504044531 12 202 0.0 1.6 0.00 0.00 0.00 65 1015.1
20260504044020 11 202 0.0 1.6 0.00 0.00 0.00 66 1015.1
20260504043510 11 202 0.0 1.6 0.00 0.00 0.00 67 1015.1
20260504043021 11 202 0.0 3.2 0.00 0.00 0.00 65 1015.0
20260504042512 11 202 0.0 3.2 0.00 0.00 0.00 67 1015.0
20260504042021 11 203 1.6 4.8 0.00 0.00 0.00 68 1014.9
20260504041511 11 212 1.6 4.8 0.00 0.00 0.00 67 1014.8
20260504041021 11 149 1.6 3.2 0.00 0.00 0.00 69 1014.8
20260504040515 11 149 1.6 4.8 0.00 0.00 0.00 69 1014.9
20260504040045 11 206 1.6 3.2 0.00 0.00 0.00 67 1015.0
20260504035514 11 205 1.6 3.2 0.00 0.00 0.00 67 1015.1
20260504035024 11 206 1.6 3.2 0.00 0.00 0.00 67 1015.2
20260504034514 11 205 1.6 3.2 0.00 0.00 0.00 67 1015.2
20260504034025 11 205 1.6 3.2 0.00 0.00 0.00 66 1015.3
20260504033516 11 206 1.6 3.2 0.00 0.00 0.00 66 1015.4
20260504033028 11 205 0.0 3.2 0.00 0.00 0.00 65 1015.4
20260504032517 11 206 1.6 3.2 0.00 0.00 0.00 65 1015.5
20260504032006 11 205 1.6 3.2 0.00 0.00 0.00 65 1015.6
20260504031520 11 205 0.0 1.6 0.00 0.00 0.00 65 1015.6
20260504031010 11 206 1.6 3.2 0.00 0.00 0.00 67 1015.6
20260504030520 11 205 1.6 3.2 0.00 0.00 0.00 66 1015.7
20260504030010 11 205 0.0 4.8 0.00 0.00 0.00 64 1015.7
20260504025520 11 205 1.6 4.8 0.00 0.00 0.00 66 1015.7
20260504025010 11 205 1.6 3.2 0.00 0.00 0.00 65 1015.6
20260504024520 11 205 0.0 3.2 0.00 0.00 0.00 64 1015.6
20260504024030 11 206 0.0 3.2 0.00 0.00 0.00 63 1015.6
20260504023518 11 206 0.0 3.2 0.00 0.00 0.00 65 1015.6
20260504023029 11 206 0.0 1.6 0.00 0.00 0.00 64 1015.6
20260504022523 11 205 0.0 0.0 0.00 0.00 0.00 63 1015.6
20260504022017 11 206 0.0 1.6 0.00 0.00 0.00 62 1015.6
20260504021547 11 205 0.0 1.6 0.00 0.00 0.00 64 1015.5
20260504021016 12 206 0.0 0.0 0.00 0.00 0.00 63 1015.4
20260504020525 12 206 0.0 0.0 0.00 0.00 0.00 61 1015.4
20260504020015 12 206 0.0 0.0 0.00 0.00 0.00 62 1015.3
20260504015525 12 205 0.0 0.0 0.00 0.00 0.00 63 1015.3
20260504015015 12 206 0.0 0.0 0.00 0.00 0.00 64 1015.2
20260504014527 12 206 0.0 0.0 0.00 0.00 0.00 64 1015.2
20260504014017 12 206 0.0 0.0 0.00 0.00 0.00 64 1015.0
20260504013511 12 206 0.0 0.0 0.00 0.00 0.00 63 1014.9
20260504013021 12 205 0.0 0.0 0.00 0.00 0.00 61 1014.9
20260504012511 12 206 0.0 0.0 0.00 0.00 0.00 63 1014.8
20260504012023 12 205 0.0 1.6 0.00 0.00 0.00 61 1014.9
20260504011513 12 205 0.0 1.6 0.00 0.00 0.00 62 1014.8
20260504011023 12 205 0.0 1.6 0.00 0.00 0.00 61 1014.8
20260504010534 13 206 1.6 1.6 0.00 0.00 0.00 59 1014.8
20260504010020 13 206 0.0 1.6 0.00 0.00 0.00 60 1014.8
20260504005511 13 206 0.0 1.6 0.00 0.00 0.00 61 1014.9
20260504005041 13 206 0.0 1.6 0.00 0.00 0.00 60 1014.9
20260504004514 13 206 0.0 1.6 0.00 0.00 0.00 59 1014.9
20260504004024 13 206 0.0 1.6 0.00 0.00 0.00 60 1014.8
20260504003514 14 206 0.0 1.6 0.00 0.00 0.00 60 1014.8
20260504003026 14 206 0.0 1.6 0.00 0.00 0.00 61 1014.8
20260504002515 15 206 0.0 1.6 0.00 0.00 0.00 60 1014.8
20260504002026 15 205 0.0 3.2 0.00 0.00 0.00 60 1014.8
20260504001515 15 206 0.0 1.6 0.00 0.00 0.00 58 1014.9
20260504001026 15 205 0.0 1.6 0.00 0.00 0.00 59 1014.9
20260504000519 15 205 0.0 0.0 0.00 0.00 0.00 54 1014.9
20260504000009 16 205 0.0 1.6 0.00 0.00 0.00 52 1014.9
20260503235519 16 205 0.0 1.6 0.00 0.00 0.00 51 1014.9
20260503235010 16 205 0.0 3.2 0.00 0.00 0.00 50 1014.9
20260503234519 16 206 0.0 4.8 0.00 0.00 0.00 48 1014.9
20260503234008 16 11 0.0 4.8 0.00 0.00 0.00 51 1015.0
20260503233518 16 11 1.6 4.8 0.00 0.00 0.00 48 1015.0
20260503233007 16 11 0.0 3.2 0.00 0.00 0.00 50 1014.9
20260503232517 16 11 1.6 3.2 0.00 0.00 0.00 48 1015.0
20260503232012 16 161 1.6 3.2 0.00 0.00 0.00 47 1015.1
20260503231522 16 160 1.6 3.2 0.00 0.00 0.00 48 1015.1
20260503231031 16 213 0.0 4.8 0.00 0.00 0.00 47 1015.1
20260503230520 17 132 1.6 4.8 0.00 0.00 0.00 46 1015.1
20260503230011 17 192 1.6 4.8 0.00 0.00 0.00 46 1015.2
20260503225520 17 191 3.2 4.8 0.00 0.00 0.00 44 1015.2
20260503225030 17 233 1.6 4.8 0.00 0.00 0.00 48 1015.2
20260503224542 17 261 1.6 4.8 0.00 0.00 0.00 44 1015.2
20260503224030 17 186 1.6 4.8 0.00 0.00 0.00 44 1015.1
20260503223519 17 223 3.2 4.8 0.00 0.00 0.00 44 1015.2
20260503223009 17 296 1.6 4.8 0.00 0.00 0.00 45 1015.2
20260503222523 17 285 1.6 6.4 0.00 0.00 0.00 45 1015.2
20260503222013 17 218 3.2 8.0 0.00 0.00 0.00 44 1015.3
20260503221523 17 159 3.2 8.0 0.00 0.00 0.00 44 1015.4
20260503221013 17 263 1.6 8.0 0.00 0.00 0.00 45 1015.4
20260503220523 17 184 3.2 6.4 0.00 0.00 0.00 45 1015.4
20260503220013 17 284 3.2 6.4 0.00 0.00 0.00 43 1015.4
20260503215524 17 312 3.2 6.4 0.00 0.00 0.00 44 1015.5
20260503215035 17 355 3.2 4.8 0.00 0.00 0.00 41 1015.6
20260503214524 17 300 1.6 6.4 0.00 0.00 0.00 44 1015.6
20260503214019 17 301 1.6 6.4 0.00 0.00 0.00 40 1015.7
20260503213529 17 207 1.6 6.4 0.00 0.00 0.00 40 1015.8
20260503213019 17 218 3.2 6.4 0.00 0.00 0.00 39 1015.8
20260503212510 17 216 1.6 6.4 0.00 0.00 0.00 39 1015.9
20260503212020 17 197 3.2 4.8 0.00 0.00 0.00 40 1015.9
20260503211509 18 223 3.2 4.8 0.00 0.00 0.00 40 1015.9
20260503211020 18 17 3.2 6.4 0.00 0.00 0.00 41 1015.9
20260503210511 18 225 1.6 4.8 0.00 0.00 0.00 41 1016.1
20260503210019 18 294 3.2 6.4 0.00 0.00 0.00 41 1016.0
20260503205530 18 221 3.2 6.4 0.00 0.00 0.00 42 1016.1
20260503205023 18 259 1.6 6.4 0.00 0.00 0.00 41 1016.1
20260503204514 18 298 3.2 6.4 0.00 0.00 0.00 42 1016.2
20260503204026 18 327 3.2 6.4 0.00 0.00 0.00 44 1016.2
20260503203536 18 306 4.8 6.4 0.00 0.00 0.00 42 1016.3
20260503203044 18 291 3.2 6.4 0.00 0.00 0.00 43 1016.3
20260503202532 18 28 3.2 6.4 0.00 0.00 0.00 46 1016.4
20260503202021 18 324 3.2 6.4 0.00 0.00 0.00 45 1016.5
20260503201512 18 284 3.2 6.4 0.00 0.00 0.00 44 1016.7
20260503201023 18 285 1.6 9.7 0.00 0.00 0.00 46 1016.8
20260503200515 18 186 4.8 6.4 0.00 0.00 0.00 48 1016.8
20260503200009 18 335 3.2 9.7 0.00 0.00 0.00 48 1016.9
20260503195519 18 317 4.8 8.0 0.00 0.00 0.00 47 1016.9
20260503195008 18 344 3.2 6.4 0.00 0.00 0.00 45 1017.1
20260503194519 18 229 3.2 6.4 0.00 0.00 0.00 45 1017.2
20260503194009 18 272 3.2 8.0 0.00 0.00 0.00 44 1017.2
20260503193539 18 355 3.2 8.0 0.00 0.00 0.00 47 1017.3
20260503193007 18 149 3.2 8.0 0.00 0.00 0.00 46 1017.4
20260503192518 18 299 3.2 9.7 0.00 0.00 0.00 48 1017.6
20260503192008 18 107 1.6 8.0 0.00 0.00 0.00 46 1017.5
20260503191538 18 224 4.8 8.0 0.00 0.00 0.00 45 1017.7
20260503191029 18 350 3.2 6.4 0.00 0.00 0.00 47 1017.7
20260503190521 18 35 3.2 6.4 0.00 0.00 0.00 44 1017.8
20260503190008 18 196 3.2 8.0 0.00 0.00 0.00 46 1017.9
20260503185521 18 257 4.8 11.3 0.00 0.00 0.00 45 1017.9
20260503185010 18 300 1.6 11.3 0.00 0.00 0.00 49 1017.9
20260503184521 18 313 3.2 6.4 0.00 0.00 0.00 44 1018.0
20260503184011 18 303 3.2 6.4 0.00 0.00 0.00 46 1017.9
20260503183541 17 148 1.6 6.4 0.00 0.00 0.00 48 1018.0
20260503183010 17 135 3.2 11.3 0.00 0.00 0.00 51 1018.0
20260503182540 17 299 4.8 11.3 0.00 0.00 0.00 50 1018.1
20260503182047 17 302 3.2 8.0 0.00 0.00 0.00 49 1018.2
20260503181516 17 177 1.6 12.9 0.00 0.00 0.00 49 1018.2
20260503181010 17 342 3.2 12.9 0.00 0.00 0.00 50 1018.3
20260503180520 17 250 4.8 8.0 0.00 0.00 0.00 47 1018.3
20260503180031 17 297 3.2 6.4 0.00 0.00 0.00 52 1018.3
20260503175540 17 194 3.2 6.4 0.00 0.00 0.00 47 1018.4
20260503175009 16 325 3.2 6.4 0.00 0.00 0.00 49 1018.5
20260503174519 16 312 1.6 6.4 0.00 0.00 0.00 50 1018.5
20260503174009 16 308 3.2 8.0 0.00 0.00 0.00 49 1018.5
20260503173541 16 229 4.8 8.0 0.00 0.00 0.00 49 1018.6
20260503173010 16 148 1.6 8.0 0.00 0.00 0.00 48 1018.6
20260503172520 16 289 3.2 4.8 0.00 0.00 0.00 51 1018.8
20260503172016 16 274 3.2 8.0 0.00 0.00 0.00 48 1018.8
20260503171525 16 346 3.2 8.0 0.00 0.00 0.00 48 1018.9
20260503171015 16 314 3.2 4.8 0.00 0.00 0.00 49 1018.9
20260503170525 16 144 1.6 6.4 0.00 0.00 0.00 49 1019.0
20260503150510 11 243 1.6 4.8 0.00 0.00 0.00 65 1019.4
20260503131036 8 289 1.6 4.8 0.00 0.00 0.00 84 1019.0
20260503130525 7 344 0.0 4.8 0.00 0.00 0.00 85 1018.8